Terminal Aerodrome Forecast
Issued by NWS

Home | Current Version | Previous Version | Text Only | Print | Product List | Glossary On
Versions: 1 2 3 4 5 6 7 8 9 10 11 12 13 14 15 16 17 18 19 20 21 22 23 24 25 26 27 28 29 30 31 32 33 34 35 36 37 38 39 40 41 42 43 44 45 46 47 48 49
000
FTUS45 KSLC 201740
TAFPVU
TAF
KPVU 201740Z 2018/2118 VRB05KT P6SM VCSH SCT020 BKN050
      TEMPO 2018/2020 BKN015
     FM202100 VRB05KT P6SM SCT050 BKN080
     FM210100 VRB04KT P6SM SCT060 SCT120=

USA.gov is the U.S. government's official web portal to all federal, state and local government web resources and services.